| time (UTC) | temp F | wind direction | speed MPH | gust MPH | rain 1hr in | rain 24hr in | rain mn in | humidity % | barometer mb |
| 20260510133059 | 78 | 67 | 1.0 | 4.0 | 0.00 | 0.00 | 0.00 | 88 | 1014.9 |
| 20260510131604 | 78 | 58 | 1.0 | 3.0 | 0.00 | 0.00 | 0.00 | 89 | 1014.4 |
| 20260510130056 | 77 | 41 | 0.0 | 2.0 | 0.00 | 0.00 | 0.00 | 90 | 1014.0 |
| 20260510124610 | 76 | 86 | 0.0 | 3.0 | 0.00 | 0.00 | 0.00 | 91 | 1013.8 |
| 20260510123056 | 76 | 0 | 0.0 | 2.0 | 0.00 | 0.00 | 0.00 | 92 | 1013.6 |
| 20260510121554 | 76 | 0 | 0.0 | 2.0 | 0.00 | 0.00 | 0.00 | 92 | 1013.3 |
| 20260510120057 | 76 | 162 | 0.0 | 2.0 | 0.00 | 0.00 | 0.00 | 91 | 1013.1 |
| 20260510114605 | 76 | 168 | 0.0 | 3.0 | 0.00 | 0.00 | 0.00 | 91 | 1013.0 |
| 20260510113101 | 76 | 206 | 1.0 | 3.0 | 0.00 | 0.00 | 0.00 | 91 | 1012.7 |
| 20260510111610 | 76 | 181 | 1.0 | 4.0 | 0.00 | 0.00 | 0.00 | 91 | 1012.5 |
| 20260510110055 | 75 | 128 | 1.0 | 5.0 | 0.00 | 0.00 | 0.00 | 92 | 1012.3 |
| 20260510104606 | 75 | 205 | 1.0 | 4.0 | 0.00 | 0.00 | 0.00 | 92 | 1012.1 |
| 20260510103055 | 75 | 213 | 1.0 | 3.0 | 0.00 | 0.00 | 0.00 | 92 | 1012.0 |
| 20260510101555 | 75 | 196 | 1.0 | 4.0 | 0.00 | 0.00 | 0.00 | 92 | 1012.0 |
| 20260510100053 | 75 | 188 | 2.0 | 5.0 | 0.00 | 0.00 | 0.00 | 92 | 1012.0 |
| 20260510094553 | 75 | 117 | 3.0 | 9.0 | 0.00 | 0.00 | 0.00 | 92 | 1011.8 |
| 20260510093055 | 75 | 115 | 1.0 | 5.0 | 0.00 | 0.00 | 0.00 | 92 | 1012.0 |
| 20260510091559 | 75 | 159 | 2.0 | 6.0 | 0.00 | 0.00 | 0.00 | 92 | 1012.0 |
| 20260510090134 | 75 | 194 | 2.0 | 7.0 | 0.00 | 0.00 | 0.00 | 92 | 1012.0 |
| 20260510084559 | 75 | 174 | 2.0 | 4.0 | 0.00 | 0.00 | 0.00 | 92 | 1011.9 |
| 20260510083051 | 75 | 190 | 1.0 | 5.0 | 0.00 | 0.00 | 0.00 | 92 | 1011.8 |
| 20260510081552 | 75 | 175 | 1.0 | 4.0 | 0.00 | 0.00 | 0.00 | 92 | 1011.8 |
| 20260510080059 | 74 | 186 | 1.0 | 3.0 | 0.00 | 0.00 | 0.00 | 92 | 1011.8 |
| 20260510074556 | 74 | 134 | 1.0 | 5.0 | 0.00 | 0.00 | 0.00 | 92 | 1011.6 |
| 20260510073055 | 74 | 173 | 1.0 | 4.0 | 0.00 | 0.00 | 0.00 | 92 | 1011.6 |
| 20260510071553 | 75 | 150 | 1.0 | 4.0 | 0.00 | 0.00 | 0.00 | 91 | 1011.7 |
| 20260510064607 | 75 | 202 | 1.0 | 3.0 | 0.00 | 0.00 | 0.00 | 90 | 1011.7 |
| 20260510063055 | 75 | 159 | 1.0 | 5.0 | 0.00 | 0.00 | 0.00 | 90 | 1011.9 |
| 20260510061554 | 75 | 112 | 2.0 | 7.0 | 0.00 | 0.00 | 0.00 | 89 | 1012.1 |
| 20260510060053 | 75 | 107 | 0.0 | 4.0 | 0.00 | 0.00 | 0.00 | 89 | 1012.0 |
| 20260510054551 | 75 | 202 | 1.0 | 3.0 | 0.00 | 0.00 | 0.00 | 89 | 1012.0 |
| 20260510053053 | 76 | 0 | 1.0 | 5.0 | 0.00 | 0.00 | 0.00 | 89 | 1012.2 |
| 20260510051606 | 76 | 146 | 1.0 | 2.0 | 0.00 | 0.00 | 0.00 | 89 | 1012.2 |
| 20260510050057 | 76 | 303 | 1.0 | 4.0 | 0.00 | 0.00 | 0.00 | 89 | 1012.4 |
| 20260510044604 | 76 | 201 | 1.0 | 3.0 | 0.00 | 0.00 | 0.00 | 89 | 1012.5 |
| 20260510043053 | 77 | 66 | 0.0 | 3.0 | 0.00 | 0.00 | 0.00 | 89 | 1012.5 |
| 20260510041606 | 77 | 49 | 1.0 | 4.0 | 0.00 | 0.00 | 0.00 | 88 | 1012.9 |
| 20260510040058 | 77 | 84 | 1.0 | 3.0 | 0.00 | 0.00 | 0.00 | 88 | 1012.7 |
| 20260510034600 | 77 | 82 | 1.0 | 2.0 | 0.00 | 0.00 | 0.00 | 88 | 1012.4 |
| 20260510033051 | 78 | 163 | 2.0 | 7.0 | 0.00 | 0.00 | 0.00 | 88 | 1012.6 |
| 20260510031603 | 77 | 24 | 1.0 | 9.0 | 0.00 | 0.00 | 0.00 | 87 | 1012.8 |
| 20260510030103 | 78 | 53 | 2.0 | 10.0 | 0.00 | 0.00 | 0.00 | 87 | 1012.5 |
| 20260510024555 | 78 | 35 | 1.0 | 6.0 | 0.00 | 0.00 | 0.00 | 86 | 1012.2 |
| 20260510023053 | 79 | 19 | 1.0 | 4.0 | 0.00 | 0.00 | 0.00 | 82 | 1011.9 |
| 20260510021557 | 78 | 9 | 1.0 | 6.0 | 0.00 | 0.00 | 0.00 | 81 | 1011.8 |
| 20260510020056 | 78 | 183 | 0.0 | 3.0 | 0.00 | 0.00 | 0.00 | 82 | 1011.2 |
| 20260510014551 | 79 | 131 | 1.0 | 3.0 | 0.00 | 0.00 | 0.00 | 81 | 1010.7 |
| 20260510013058 | 79 | 175 | 1.0 | 2.0 | 0.00 | 0.00 | 0.00 | 80 | 1010.4 |
| 20260510011554 | 79 | 335 | 1.0 | 2.0 | 0.00 | 0.00 | 0.00 | 79 | 1010.0 |
| 20260510010056 | 81 | 161 | 1.0 | 6.0 | 0.00 | 0.00 | 0.00 | 76 | 1009.3 |
| 20260510004556 | 82 | 146 | 1.0 | 5.0 | 0.00 | 0.00 | 0.00 | 72 | 1009.7 |
| 20260510003057 | 83 | 194 | 2.0 | 4.0 | 0.00 | 0.00 | 0.00 | 65 | 1009.6 |
| 20260510001554 | 85 | 135 | 2.0 | 9.0 | 0.00 | 0.00 | 0.00 | 57 | 1009.6 |
| 20260510000106 | 87 | 105 | 2.0 | 6.0 | 0.00 | 0.00 | 0.00 | 54 | 1009.2 |
| 20260509234604 | 89 | 257 | 1.0 | 6.0 | 0.00 | 0.00 | 0.00 | 53 | 1009.1 |
| 20260509233057 | 89 | 175 | 3.0 | 7.0 | 0.00 | 0.00 | 0.00 | 51 | 1008.9 |
| 20260509231610 | 90 | 168 | 3.0 | 6.0 | 0.00 | 0.00 | 0.00 | 52 | 1009.0 |
| 20260509230106 | 91 | 205 | 2.0 | 7.0 | 0.00 | 0.00 | 0.00 | 52 | 1008.7 |
| 20260509224556 | 92 | 238 | 1.0 | 3.0 | 0.00 | 0.00 | 0.00 | 51 | 1008.7 |
| 20260509223052 | 91 | 144 | 1.0 | 5.0 | 0.00 | 0.00 | 0.00 | 50 | 1008.7 |
| 20260509221557 | 90 | 271 | 3.0 | 6.0 | 0.00 | 0.00 | 0.00 | 52 | 1008.5 |
| 20260509220056 | 91 | 45 | 1.0 | 4.0 | 0.00 | 0.00 | 0.00 | 54 | 1008.5 |
| 20260509214554 | 90 | 193 | 2.0 | 4.0 | 0.00 | 0.00 | 0.00 | 57 | 1008.5 |
| 20260509213054 | 90 | 265 | 1.0 | 3.0 | 0.00 | 0.00 | 0.00 | 58 | 1008.5 |
| 20260509211601 | 89 | 5 | 1.0 | 4.0 | 0.00 | 0.00 | 0.00 | 60 | 1008.5 |
| 20260509210107 | 89 | 266 | 3.0 | 5.0 | 0.00 | 0.00 | 0.00 | 57 | 1008.6 |
| 20260509204557 | 90 | 104 | 1.0 | 6.0 | 0.00 | 0.00 | 0.00 | 58 | 1008.8 |
| 20260509203053 | 89 | 230 | 1.0 | 5.0 | 0.00 | 0.00 | 0.00 | 60 | 1008.9 |
| 20260509201600 | 89 | 217 | 2.0 | 5.0 | 0.00 | 0.00 | 0.00 | 61 | 1009.1 |
| 20260509200103 | 88 | 242 | 3.0 | 6.0 | 0.00 | 0.00 | 0.00 | 63 | 1009.2 |
| 20260509194556 | 87 | 223 | 3.0 | 6.0 | 0.00 | 0.00 | 0.00 | 60 | 1009.2 |
| 20260509193056 | 87 | 136 | 1.0 | 5.0 | 0.00 | 0.00 | 0.00 | 61 | 1009.5 |
| 20260509191557 | 88 | 5 | 2.0 | 4.0 | 0.00 | 0.00 | 0.00 | 65 | 1009.6 |
| 20260509190108 | 87 | 202 | 1.0 | 4.0 | 0.00 | 0.00 | 0.00 | 64 | 1009.5 |
| 20260509184605 | 85 | 269 | 0.0 | 3.0 | 0.00 | 0.00 | 0.00 | 69 | 1009.8 |
| 20260509183057 | 85 | 346 | 2.0 | 5.0 | 0.00 | 0.00 | 0.00 | 71 | 1010.2 |
| 20260509181607 | 84 | 37 | 2.0 | 6.0 | 0.00 | 0.00 | 0.00 | 71 | 1010.4 |
| 20260509180105 | 84 | 346 | 0.0 | 5.0 | 0.00 | 0.00 | 0.00 | 75 | 1010.7 |
| 20260509174556 | 83 | 43 | 2.0 | 3.0 | 0.00 | 0.00 | 0.00 | 76 | 1011.2 |
| 20260509173100 | 81 | 284 | 1.0 | 6.0 | 0.00 | 0.00 | 0.00 | 78 | 1011.2 |
| 20260509171553 | 81 | 233 | 1.0 | 5.0 | 0.00 | 0.00 | 0.00 | 80 | 1011.4 |
| 20260509164555 | 81 | 194 | 2.0 | 9.0 | 0.00 | 0.00 | 0.00 | 82 | 1011.4 |
| 20260509163104 | 81 | 224 | 1.0 | 4.0 | 0.00 | 0.00 | 0.00 | 84 | 1011.5 |
| 20260509161556 | 81 | 237 | 2.0 | 4.0 | 0.00 | 0.00 | 0.00 | 84 | 1011.4 |
| 20260509160052 | 81 | 238 | 0.0 | 4.0 | 0.00 | 0.00 | 0.00 | 85 | 1011.1 |
| 20260509154606 | 80 | 224 | 1.0 | 5.0 | 0.00 | 0.00 | 0.00 | 86 | 1011.1 |
| 20260509153055 | 79 | 207 | 1.0 | 5.0 | 0.00 | 0.00 | 0.00 | 88 | 1010.9 |
| 20260509151556 | 78 | 195 | 1.0 | 4.0 | 0.00 | 0.00 | 0.00 | 90 | 1011.1 |
| 20260509150108 | 77 | 0 | 0.0 | 3.0 | 0.00 | 0.00 | 0.00 | 91 | 1010.7 |
| 20260509144602 | 77 | 223 | 0.0 | 2.0 | 0.00 | 0.00 | 0.00 | 93 | 1011.0 |
| 20260509143102 | 76 | 161 | 1.0 | 5.0 | 0.00 | 0.00 | 0.00 | 94 | 1011.1 |
| 20260509141554 | 76 | 246 | 0.0 | 3.0 | 0.00 | 0.00 | 0.00 | 94 | 1011.4 |
| 20260509140059 | 76 | 214 | 1.0 | 5.0 | 0.00 | 0.00 | 0.00 | 95 | 1011.0 |
| 20260509134556 | 75 | 252 | 1.0 | 2.0 | 0.00 | 0.00 | 0.00 | 96 | 1010.9 |